EW2941 Weather Reports


time (UTC)temp
F
wind
direction
speed
knots
gust
knots
rain 1hr
in
rain 24hr
in
rain mn
in
humidity
%
barometer
mb
20260507150014 56 5 0.9 4.3 0.00 0.11 0.03 71 1010.8
20260507144603 56 8 0.9 4.3 0.00 0.11 0.03 74 1010.9
20260507143035 56 163 0.0 3.5 0.00 0.11 0.03 74 1011.4
20260507141611 56 285 0.9 4.3 0.00 0.11 0.03 74 1011.4
20260507140039 56 352 0.0 4.3 0.00 0.13 0.03 74 1011.4
20260507134519 56 344 0.0 5.2 0.00 0.13 0.03 73 1011.5
20260507133002 56 350 0.0 4.3 0.00 0.13 0.03 73 1011.4
20260507131543 56 311 1.7 4.3 0.00 0.13 0.03 74 1011.1
20260507130013 56 27 0.9 5.2 0.00 0.13 0.03 78 1011.2
20260507124606 56 153 0.9 3.5 0.00 0.13 0.03 78 1011.3
20260507123041 56 218 0.0 6.1 0.00 0.13 0.03 80 1010.9
20260507121507 56 309 0.0 5.2 0.00 0.13 0.03 82 1011.0
20260507120050 56 319 0.0 7.0 0.00 0.13 0.03 83 1010.7
20260507114539 55 12 0.9 4.3 0.00 0.13 0.03 85 1010.7
20260507113015 55 224 0.0 2.6 0.00 0.13 0.03 85 1010.8
20260507111549 55 126 0.9 3.5 0.00 0.13 0.03 86 1010.5
20260507110037 55 352 0.0 2.6 0.00 0.13 0.03 87 1010.6
20260507104511 55 6 0.0 3.5 0.00 0.13 0.03 87 1010.5
20260507103057 55 348 0.0 1.7 0.00 0.13 0.03 88 1010.3
20260507101533 55 198 0.0 1.7 0.00 0.13 0.03 87 1009.8
20260507100009 55 324 0.0 1.7 0.00 0.13 0.03 88 1009.9
20260507094600 55 130 0.0 1.7 0.00 0.13 0.03 90 1010.3
20260507093036 55 328 0.0 1.7 0.00 0.13 0.03 91 1010.0
20260507091508 55 337 0.0 2.6 0.00 0.13 0.03 92 1010.2
20260507090050 55 153 0.0 2.6 0.00 0.13 0.03 93 1010.0
20260507084538 56 14 0.0 0.9 0.00 0.13 0.03 93 1009.7
20260507083013 56 349 0.0 1.7 0.00 0.13 0.03 92 1009.9
20260507081545 56 174 0.0 0.9 0.00 0.13 0.03 92 1010.0
20260507080028 56 7 0.0 3.5 0.00 0.13 0.03 91 1010.0
20260507074511 56 330 0.9 3.5 0.00 0.13 0.03 91 1009.3
20260507073104 56 326 0.0 2.6 0.00 0.13 0.03 91 1009.2
20260507071526 56 179 0.0 0.9 0.00 0.13 0.03 91 1009.1
20260507070013 56 352 0.0 1.7 0.00 0.13 0.03 91 1009.1
20260507064555 57 13 0.0 7.8 0.00 0.13 0.03 93 1009.2
20260507063035 58 151 0.0 4.3 0.01 0.13 0.03 94 1009.4
20260507061504 58 8 0.0 1.7 0.01 0.13 0.03 94 1009.3
20260507060045 59 354 0.0 3.5 0.01 0.13 0.03 94 1007.5
20260507054522 60 221 0.9 3.5 0.02 0.13 0.03 94 1007.4
20260507053126 60 181 0.0 1.7 0.01 0.12 0.02 94 1007.8
20260507051531 61 277 0.0 1.7 0.01 0.12 0.02 94 1008.7
20260507050022 62 16 0.9 3.5 0.02 0.12 0.02 94 1008.8
20260507044620 63 32 0.0 2.6 0.01 0.11 0.01 95 1008.4
20260507043042 64 108 0.0 0.0 0.01 0.11 0.01 95 1008.3
20260507041513 64 108 0.0 0.0 0.01 0.11 0.01 94 1008.0
20260507040101 64 108 0.0 0.0 0.00 0.10 0.10 93 1008.3
20260507034544 64 108 0.0 0.9 0.00 0.10 0.10 93 1008.1
20260507033026 64 108 0.0 0.9 0.00 0.10 0.10 93 1007.9
20260507031559 64 43 0.0 0.0 0.00 0.10 0.10 93 1008.0
20260507030033 64 43 0.0 0.0 0.00 0.10 0.10 93 1008.3
20260507024511 64 42 0.0 0.0 0.00 0.10 0.10 93 1007.8
20260507023052 64 42 0.0 0.0 0.00 0.10 0.10 92 1007.5
20260507021524 64 43 0.0 0.0 0.00 0.10 0.10 92 1007.2
20260507020009 64 43 0.0 0.0 0.00 0.10 0.10 92 1007.7
20260507014556 64 43 0.0 0.0 0.00 0.10 0.10 92 1007.7
20260507013036 64 43 0.0 0.0 0.00 0.10 0.10 91 1007.6
20260507011504 64 43 0.0 0.0 0.00 0.10 0.10 91 1007.8
20260507010046 65 43 0.0 0.0 0.00 0.10 0.10 91 1007.4
20260507004528 65 226 0.0 0.0 0.00 0.10 0.10 91 1007.4
20260507003011 65 226 0.0 0.9 0.00 0.10 0.10 90 1007.3
20260507001543 66 226 0.0 0.0 0.00 0.10 0.10 90 1007.4
20260507000027 66 226 0.0 0.9 0.00 0.10 0.10 90 1007.3
20260506234506 67 226 0.0 0.9 0.00 0.10 0.10 89 1007.1
20260506233052 67 226 0.0 0.9 0.00 0.10 0.10 88 1006.6
20260506231520 68 186 0.0 0.9 0.00 0.10 0.10 88 1006.7
20260506230107 68 285 0.0 2.6 0.00 0.10 0.10 87 1006.8
20260506224543 68 324 0.0 1.7 0.00 0.10 0.10 87 1006.9
20260506223025 69 232 0.0 1.7 0.00 0.10 0.10 86 1006.8
20260506221556 69 245 0.0 0.9 0.00 0.10 0.10 85 1007.0
20260506220040 69 226 0.0 1.7 0.00 0.10 0.10 85 1006.8
20260506214518 69 340 0.0 1.7 0.00 0.10 0.10 85 1006.7
20260506213001 69 321 0.0 2.6 0.00 0.10 0.10 85 1007.1
20260506211533 69 284 0.0 2.6 0.00 0.10 0.10 85 1006.8
20260506210017 69 255 0.0 1.7 0.00 0.10 0.10 85 1006.8
20260506204556 69 222 0.0 0.9 0.00 0.10 0.10 86 1007.0
20260506203041 68 248 0.0 1.7 0.00 0.10 0.10 86 1007.0
20260506201511 68 245 0.0 0.9 0.00 0.10 0.10 87 1007.2
20260506200054 67 180 0.0 0.9 0.00 0.10 0.10 89 1007.1
20260506194536 66 338 0.0 0.9 0.00 0.10 0.10 90 1007.0
20260506193017 65 210 0.0 0.9 0.00 0.10 0.10 90 1007.4
20260506191550 65 324 0.0 3.5 0.00 0.10 0.10 90 1007.5
20260506190038 65 318 0.0 0.9 0.00 0.10 0.10 91 1007.9
20260506184513 65 317 0.0 0.9 0.00 0.10 0.10 91 1008.1
20260506183057 65 313 0.0 1.7 0.00 0.10 0.10 91 1008.1
20260506181527 64 281 0.0 1.7 0.00 0.10 0.10 92 1008.1
20260506180012 64 11 0.0 1.7 0.00 0.10 0.10 92 1008.3
20260506174552 64 245 0.0 1.7 0.00 0.10 0.10 93 1008.2
20260506173040 64 177 0.0 1.7 0.00 0.10 0.10 94 1008.4
20260506171620 64 158 0.0 0.9 0.00 0.10 0.10 95 1008.4
20260506170040 63 333 0.0 1.7 0.00 0.10 0.10 95 1008.4
20260506164516 63 331 0.0 0.9 0.00 0.10 0.10 95 1008.7
20260506163106 63 331 0.0 0.9 0.00 0.10 0.10 96 1008.7
20260506161527 62 338 0.0 1.7 0.00 0.10 0.10 96 1009.3
20260506160007 62 232 0.0 0.9 0.01 0.10 0.10 96 1008.9
20260506154551 62 213 0.0 1.7 0.02 0.10 0.10 95 1008.7
20260506153028 61 280 0.0 0.9 0.04 0.10 0.10 95 1008.8
20260506151603 61 305 0.0 0.9 0.07 0.10 0.10 95 1008.7